Location: St. Louis
(38.6270°N, 90.1994°W)
Time: 03:12:53
(UTC-05:00)

deb Explorer IX - Visible Passes

Search period start: 23 September 2023 00:00
Search period end: 03 October 2023 00:00
Orbit: 529 x 969 km, 38.8° (Epoch: 22 September)

Date Brightness Start Highest point End Pass type
(mag) Time Alt. Az. Time Alt. Az. Time Alt. Az.
23 Sep ? 03:49:38 34° ESE 03:49:38 34° ESE 03:54:12 10° E visible
23 Sep ? 05:29:24 24° WSW 05:33:34 78° SSE 05:39:59 10° E visible
24 Sep ? 03:06:13 17° E 03:06:13 17° E 03:07:57 10° E visible
24 Sep ? 04:45:58 53° SW 04:47:30 71° SSE 04:53:59 10° E visible
25 Sep ? 04:02:25 55° ESE 04:02:25 55° ESE 04:07:49 10° E visible
25 Sep ? 05:42:08 20° W 05:46:59 89° N 05:53:26 10° E visible
26 Sep ? 03:18:43 25° E 03:18:43 25° E 03:21:27 10° E visible
26 Sep ? 04:58:27 46° W 05:00:37 89° S 05:07:10 10° E visible
27 Sep ? 02:34:54 10° E 02:34:54 10° E 02:34:54 10° E visible
27 Sep ? 04:14:37 77° ESE 04:14:37 77° ESE 04:20:45 10° E visible
27 Sep ? 05:54:21 15° W 05:59:55 88° S 06:06:23 10° E visible
28 Sep ? 03:30:42 33° E 03:30:42 33° E 03:34:09 10° E visible
28 Sep ? 05:10:25 36° W 05:13:18 89° N 05:19:51 10° E visible
29 Sep ? 02:46:41 13° E 02:46:41 13° E 02:47:24 10° E visible
29 Sep ? 04:26:24 86° WNW 04:26:33 88° N 04:33:09 10° E visible
29 Sep ? 06:06:07 12° W 06:12:14 70° SSW 06:18:38 10° ESE visible
30 Sep ? 03:42:19 39° E 03:42:19 39° E 03:46:17 10° E visible
30 Sep ? 05:22:01 31° W 05:25:24 78° SSW 05:31:55 10° ESE visible
01 Oct ? 02:58:09 16° E 02:58:09 16° E 02:59:16 10° E visible
01 Oct ? 04:37:52 75° WSW 04:38:26 84° S 04:45:01 10° ESE visible
01 Oct ? 06:17:40 10° W 06:23:49 45° SSW 06:29:55 10° SE visible
02 Oct ? 03:53:40 43° E 03:53:40 43° E 03:57:54 10° E visible
02 Oct ? 05:33:22 27° W 05:36:49 54° SSW 05:43:09 10° SE visible
